Tracking 27107 objects as of 21-Mar-2023
HD Live streaming from Space Station
objects crossing your sky now

OV1-14

Track OV1-14 now!
10-day predictions
OV1-14 is classified as:


NORAD ID: 3174
Int'l Code: 1968-026B
Perigee: 611.5 km
Apogee: 9,813.2 km
Inclination: 100.1 °
Period: 206.8 minutes
Semi major axis: 11583 km
RCS: 0.7366 m2 (medium)
Launch date: April 6, 1968
Source: United States (US)
Launch site: AIR FORCE WESTERN TEST RANGE (AFWTR)
Your satellite tracking list
Your tracking list is empty




NASA's NSSDC Master Catalog

Two Line Element Set (TLE):
1  3174U 68026B   23080.27274682  .00000046  00000-0  98102-4 0  9992
2  3174 100.0796 359.5697 3971966  99.2104  22.0504  6.96388226394144
Source of the keplerian elements: AFSPC